Location: Cactus School
(34.5700°N, 118.0931°W)
Time: 11:26:32
(UTC-08:00)

Tiros 1 - Pass Details

Date: 22 November 2019
Orbit: 630 x 664 km, 48.4° (Epoch: 04 December)

Event Time Altitude Azimuth Distance (km) Brightness Sun altitude
Rises 13:17:48 0° 261° (W) 2,913 11.0 30.4°
Reaches altitude 10° 13:20:21 10° 272° (W) 2,005 10.1 30.1°
Maximum altitude 13:24:25 30° 334° (NNW) 1,122 8.3 29.7°
Drops below altitude 10° 13:28:31 10° 36° (NE) 2,009 9.2 29.3°
Sets 13:31:05 0° 47° (NE) 2,920 10.0 29.0°
